Location: Little Ridge
(33.0629°N, 96.4547°W)
Time: 21:19:58
(UTC+00:00)

Hubble Space Telescope - Visible Passes

Search period start: 04 December 2022 00:00
Search period end: 14 December 2022 00:00
Orbit: 530 x 534 km, 28.5° (Epoch: 04 December)

Date Brightness Start Highest point End Pass type
(mag) Time Alt. Az. Time Alt. Az. Time Alt. Az.
04 Dec 3.6 12:14:53 10° S 12:16:50 13° SSE 12:18:45 10° SE visible
05 Dec 3.4 12:01:35 10° SSW 12:04:06 16° SSE 12:06:36 10° ESE visible
06 Dec 3.1 11:48:28 10° SSW 11:51:22 19° SSE 11:54:16 10° ESE visible
07 Dec 2.8 11:36:07 13° SSW 11:38:39 22° SSE 11:41:49 10° ESE visible
08 Dec 2.5 11:24:39 21° SSW 11:25:56 25° SSE 11:29:19 10° ESE visible
09 Dec 2.2 11:13:03 29° S 11:13:13 29° SSE 11:16:46 10° ESE visible
09 Dec 1.7 12:50:03 10° WSW 12:53:57 43° S 12:57:50 10° ESE visible
10 Dec 2.4 11:01:21 29° SE 11:01:21 29° SE 11:04:10 10° ESE visible
10 Dec 1.7 12:37:21 10° WSW 12:41:15 43° S 12:45:09 10° ESE visible
11 Dec 2.9 10:49:34 24° ESE 10:49:34 24° ESE 10:51:33 10° ESE visible
11 Dec 1.6 12:24:47 11° WSW 12:28:34 43° S 12:32:27 10° ESE visible
12 Dec 3.4 10:37:43 18° ESE 10:37:43 18° ESE 10:38:54 10° ESE visible
12 Dec 1.7 12:12:56 16° WSW 12:15:52 41° S 12:19:44 10° ESE visible
13 Dec 3.9 10:25:50 12° ESE 10:25:50 12° ESE 10:26:15 10° ESE visible
13 Dec 1.7 12:01:03 22° WSW 12:03:10 39° S 12:06:58 10° ESE visible
